EW5026 Weather Reports


Display with metric or nautical units.
time (UTC)temp
F
wind
direction
speed
MPH
gust
MPH
rain 1hr
in
rain 24hr
in
rain mn
in
humidity
%
barometer
mb
20260506051048 49 308 0.0 0.0 0.00 0.01 0.00 73 1009.1
20260506050546 49 308 0.0 0.0 0.00 0.01 0.00 74 1009.0
20260506050104 49 308 0.0 0.0 0.00 0.01 0.00 72 1009.1
20260506045046 50 308 0.0 0.0 0.00 0.01 0.01 75 1008.9
20260506044550 50 308 0.0 0.0 0.00 0.01 0.01 69 1008.9
20260506044045 50 308 0.0 0.0 0.00 0.01 0.01 70 1008.8
20260506043545 50 308 0.0 0.0 0.00 0.01 0.01 72 1009.1
20260506043045 50 308 0.0 0.0 0.00 0.01 0.01 69 1008.9
20260506042545 50 308 0.0 0.0 0.00 0.01 0.01 68 1009.0
20260506042045 50 308 0.0 0.0 0.00 0.01 0.01 71 1009.2
20260506041545 50 308 0.0 0.0 0.00 0.01 0.01 70 1009.4
20260506041044 50 308 0.0 1.0 0.00 0.01 0.01 66 1009.2
20260506040544 50 308 0.0 1.0 0.00 0.01 0.01 68 1009.2
20260506040046 50 308 0.0 0.0 0.00 0.01 0.01 70 1009.2
20260506035544 50 308 0.0 0.0 0.00 0.02 0.01 69 1009.4
20260506035044 50 308 0.0 0.0 0.00 0.02 0.01 69 1009.1
20260506034549 50 308 0.0 0.0 0.00 0.02 0.01 69 1009.3
20260506034043 50 308 0.0 0.0 0.00 0.02 0.01 71 1009.4
20260506033543 50 308 0.0 0.0 0.00 0.02 0.01 70 1009.5
20260506033047 51 308 0.0 2.0 0.00 0.02 0.01 71 1009.3
20260506032543 51 308 0.0 3.0 0.00 0.02 0.01 70 1009.4
20260506032042 51 308 1.0 3.0 0.00 0.02 0.01 68 1009.3
20260506031548 51 308 1.0 3.0 0.00 0.02 0.01 67 1009.4
20260506031043 51 308 1.0 2.0 0.00 0.02 0.01 63 1009.1
20260506030540 51 308 1.0 2.0 0.00 0.02 0.01 67 1009.1
20260506030042 51 308 0.0 2.0 0.00 0.02 0.01 64 1009.0
20260506025540 51 308 0.0 2.0 0.00 0.41 0.01 69 1009.0
20260506025038 51 308 1.0 2.0 0.00 0.41 0.01 67 1008.9
20260506024549 52 308 0.0 3.0 0.00 0.41 0.01 64 1008.6
20260506024038 52 308 1.0 4.0 0.00 0.41 0.01 60 1008.6
20260506023541 52 286 2.0 6.0 0.00 0.41 0.01 55 1008.7
20260506023039 52 294 2.0 6.0 0.00 0.41 0.01 56 1008.9
20260506022537 52 289 2.0 5.0 0.00 0.41 0.01 55 1008.8
20260506022037 52 291 2.0 5.0 0.00 0.41 0.01 55 1008.8
20260506021542 52 272 2.0 5.0 0.00 0.41 0.01 54 1008.8
20260506021035 52 292 2.0 4.0 0.00 0.41 0.01 61 1008.6
20260506020535 52 294 2.0 4.0 0.00 0.41 0.01 57 1008.6
20260506020034 52 288 2.0 4.0 0.00 0.41 0.01 53 1008.4
20260506015634 52 296 1.0 3.0 0.00 0.64 0.01 56 1008.3
20260506015034 52 300 1.0 3.0 0.00 0.64 0.01 55 1008.2
20260506014535 52 300 1.0 3.0 0.00 0.64 0.01 56 1008.2
20260506014034 52 294 2.0 5.0 0.00 0.64 0.01 56 1008.2
20260506013534 52 294 2.0 5.0 0.00 0.64 0.01 56 1008.0
20260506013034 52 295 1.0 3.0 0.00 0.64 0.01 58 1008.1
20260506012533 52 299 1.0 4.0 0.00 0.64 0.01 53 1007.8
20260506012033 52 286 2.0 4.0 0.00 0.64 0.01 55 1008.0
20260506011537 52 295 2.0 3.0 0.00 0.64 0.01 58 1007.9
20260506011033 52 295 2.0 3.0 0.00 0.64 0.01 67 1007.7
20260506010533 52 295 2.0 3.0 0.00 0.64 0.01 66 1007.7
20260506010034 52 295 1.0 3.0 0.00 0.64 0.01 68 1007.8
20260506005533 52 295 2.0 4.0 0.00 0.64 0.01 64 1007.8
20260506005032 52 295 2.0 4.0 0.00 0.64 0.01 58 1007.7
20260506004535 52 295 2.0 4.0 0.00 0.64 0.01 64 1007.7
20260506004033 53 298 2.0 5.0 0.00 0.64 0.01 64 1007.7
20260506003532 53 308 2.0 6.0 0.00 0.64 0.01 60 1007.6
20260506003034 53 290 3.0 6.0 0.00 0.64 0.01 53 1007.8
20260506002531 53 273 2.0 4.0 0.00 0.64 0.01 54 1007.8
20260506002031 53 300 2.0 3.0 0.00 0.64 0.01 57 1007.7
20260506001536 53 300 2.0 3.0 0.00 0.64 0.01 61 1007.7
20260506001031 53 300 2.0 5.0 0.00 0.64 0.01 64 1007.6
20260506000531 53 300 2.0 5.0 0.00 0.64 0.01 60 1007.7
20260506000038 53 300 3.0 7.0 0.00 0.64 0.01 58 1007.7
20260505235534 53 321 4.0 8.0 0.00 0.64 0.01 56 1007.4
20260505235031 54 304 4.0 8.0 0.00 0.64 0.01 54 1007.5
20260505234531 54 307 5.0 9.0 0.00 0.64 0.01 53 1007.3
20260505234031 54 302 6.0 9.0 0.00 0.64 0.01 54 1007.4
20260505233532 54 306 5.0 9.0 0.00 0.64 0.01 57 1007.3
20260505233031 54 307 3.0 8.0 0.00 0.64 0.01 59 1007.3
20260505232531 54 297 3.0 6.0 0.00 0.64 0.01 62 1007.4
20260505232036 54 299 4.0 7.0 0.00 0.64 0.01 55 1007.4
20260505231534 54 300 4.0 8.0 0.00 0.64 0.01 53 1007.5
20260505231029 54 304 4.0 8.0 0.00 0.64 0.01 51 1007.5
20260505230529 54 290 4.0 8.0 0.00 0.64 0.01 52 1007.3
20260505230035 54 303 4.0 8.0 0.00 0.64 0.01 53 1007.5
20260505225529 54 300 4.0 8.0 0.00 0.64 0.01 55 1007.5
20260505225029 54 319 5.0 8.0 0.00 0.64 0.01 55 1007.7
20260505224529 54 284 4.0 9.0 0.00 0.64 0.01 49 1007.7
20260505224029 54 300 5.0 10.0 0.00 0.64 0.01 48 1007.8
20260505223528 55 260 5.0 9.0 0.00 0.64 0.01 49 1007.9
20260505223034 55 292 5.0 9.0 0.00 0.64 0.01 48 1008.0
20260505222528 55 307 4.0 10.0 0.00 0.64 0.01 55 1008.0
20260505222028 54 311 5.0 10.0 0.00 0.64 0.01 53 1007.9
20260505221528 54 286 4.0 8.0 0.00 0.64 0.01 53 1008.0
20260505221028 54 267 3.0 8.0 0.00 0.64 0.01 54 1007.9
20260505220527 54 306 6.0 8.0 0.00 0.64 0.01 53 1007.9
20260505220028 54 288 3.0 8.0 0.00 0.64 0.01 50 1007.9
20260505215527 54 280 5.0 9.0 0.00 0.64 0.01 53 1008.0
20260505215027 54 316 5.0 9.0 0.00 0.64 0.01 49 1007.9
20260505214537 55 307 5.0 9.0 0.00 0.64 0.01 57 1008.0
20260505214031 55 321 5.0 9.0 0.00 0.64 0.01 54 1008.1
20260505213526 55 302 6.0 10.0 0.00 0.64 0.01 52 1008.0
20260505213026 55 284 5.0 10.0 0.00 0.64 0.01 51 1008.2
20260505212525 55 286 6.0 10.0 0.00 0.64 0.01 53 1008.1
20260505212029 55 268 6.0 10.0 0.00 0.64 0.01 49 1008.1
20260505211526 55 267 4.0 9.0 0.00 0.64 0.01 58 1008.1
20260505211025 55 314 6.0 10.0 0.00 0.64 0.01 58 1008.2
20260505210525 55 306 6.0 10.0 0.00 0.64 0.01 56 1008.2
20260505210024 54 303 5.0 10.0 0.00 0.64 0.01 55 1008.3
20260505205524 54 295 6.0 10.0 0.00 0.64 0.01 55 1008.3
20260505205024 55 298 7.0 10.0 0.00 0.64 0.01 53 1008.4
20260505204524 55 292 6.0 10.0 0.00 0.64 0.01 56 1008.4
20260505204024 55 294 4.0 8.0 0.00 0.64 0.01 58 1008.4
20260505203525 55 291 5.0 9.0 0.00 0.64 0.01 55 1008.4
20260505203024 55 284 5.0 9.0 0.00 0.64 0.01 55 1008.4
20260505202522 54 275 3.0 8.0 0.00 0.64 0.01 59 1008.5
20260505202022 54 260 5.0 8.0 0.00 0.64 0.01 57 1008.6
20260505201522 54 267 3.0 7.0 0.00 0.64 0.01 59 1008.6
20260505201025 54 288 4.0 8.0 0.00 0.64 0.01 55 1008.6
20260505200523 54 274 4.0 8.0 0.00 0.64 0.01 56 1008.5
20260505200023 54 237 5.0 8.0 0.00 0.64 0.01 56 1008.5
20260505195522 55 268 4.0 8.0 0.00 0.64 0.01 54 1008.4
20260505195022 55 282 3.0 10.0 0.00 0.64 0.01 56 1008.3
20260505194522 55 292 6.0 10.0 0.00 0.64 0.01 55 1008.3
20260505194022 55 284 4.0 10.0 0.00 0.64 0.01 55 1008.2
20260505193521 55 280 7.0 9.0 0.00 0.64 0.01 56 1008.2
20260505193022 55 272 5.0 9.0 0.00 0.64 0.01 55 1008.2
20260505192521 55 310 6.0 10.0 0.00 0.64 0.01 59 1008.2
20260505192021 55 320 5.0 12.0 0.00 0.64 0.01 61 1008.3
20260505191521 55 314 7.0 12.0 0.00 0.64 0.01 56 1008.4
20260505191022 55 315 6.0 10.0 0.00 0.64 0.01 57 1008.4
20260505190520 55 288 5.0 10.0 0.00 0.64 0.01 60 1008.4
20260505190026 55 307 6.0 10.0 0.00 0.64 0.01 55 1008.3
20260505185522 55 296 5.0 12.0 0.00 0.64 0.01 57 1008.5
20260505185024 55 298 7.0 13.0 0.00 0.64 0.01 58 1008.4
20260505184522 55 332 8.0 13.0 0.00 0.64 0.01 59 1008.5
20260505184021 55 302 6.0 12.0 0.00 0.64 0.01 59 1008.3
20260505183520 56 309 7.0 13.0 0.00 0.64 0.01 58 1008.4
20260505183028 56 310 8.0 13.0 0.00 0.64 0.01 54 1008.4
20260505182519 56 310 5.0 13.0 0.00 0.64 0.01 57 1008.5
20260505182019 56 311 9.0 13.0 0.00 0.64 0.01 58 1008.4
20260505181520 56 303 8.0 12.0 0.00 0.64 0.01 56 1008.4
20260505181020 56 307 6.0 12.0 0.00 0.64 0.01 53 1008.4
20260505180518 56 336 8.0 13.0 0.00 0.64 0.01 54 1008.3
20260505180022 56 316 8.0 13.0 0.00 0.64 0.01 52 1008.3
20260505175518 57 304 9.0 13.0 0.00 0.64 0.01 57 1008.3
20260505175019 57 274 6.0 13.0 0.00 0.64 0.01 55 1008.1
20260505174518 57 249 4.0 9.0 0.00 0.64 0.01 62 1008.0
20260505174018 56 313 7.0 9.0 0.00 0.64 0.01 63 1008.0
20260505173522 56 296 3.0 7.0 0.00 0.64 0.01 62 1008.1
20260505173017 56 242 4.0 8.0 0.00 0.64 0.01 60 1008.0
20260505172516 56 300 3.0 8.0 0.00 0.64 0.01 64 1007.9
20260505172016 56 265 3.0 10.0 0.00 0.64 0.01 62 1007.9
20260505171517 55 329 2.0 10.0 0.00 0.64 0.01 61 1008.0
20260505171017 55 284 5.0 8.0 0.00 0.64 0.01 63 1008.0
20260505170517 55 281 2.0 9.0 0.00 0.64 0.01 65 1008.0
20260505170018 54 271 3.0 9.0 0.00 0.64 0.01 67 1008.1
20260505165516 55 296 3.0 9.0 0.00 0.64 0.01 64 1008.0
20260505165019 55 327 3.0 8.0 0.00 0.64 0.01 67 1007.9
20260505164516 55 349 3.0 8.0 0.00 0.64 0.01 72 1008.0
20260505164016 55 316 3.0 11.0 0.00 0.64 0.01 68 1008.0
20260505163516 55 323 4.0 11.0 0.00 0.64 0.01 69 1008.0
20260505163019 54 360 1.0 4.0 0.00 0.64 0.01 69 1008.0
20260505162515 54 360 1.0 9.0 0.00 0.64 0.01 70 1008.0
20260505162015 54 306 3.0 9.0 0.00 0.64 0.01 72 1008.1
20260505161518 53 280 2.0 5.0 0.00 0.64 0.01 72 1008.0
20260505161015 53 325 3.0 5.0 0.00 0.64 0.01 72 1008.0
20260505160517 53 337 2.0 5.0 0.00 0.64 0.01 74 1008.0
20260505153014 51 355 3.0 6.0 0.00 0.64 0.01 76 1007.7
20260505152514 51 294 3.0 8.0 0.00 0.64 0.01 79 1008.0
20260505152016 50 360 3.0 8.0 0.00 0.64 0.01 80 1007.9
20260505151513 49 348 4.0 7.0 0.00 0.64 0.01 82 1007.8
20260505151013 48 10 4.0 8.0 0.00 0.64 0.01 81 1007.9
20260505150520 48 347 5.0 8.0 0.00 0.64 0.01 82 1008.0
20260505140509 47 315 7.0 11.0 0.00 0.63 0.00 81 1007.8
20260505124557 51 312 6.0 11.0 0.00 0.63 0.00 69 1007.3
20260505124053 51 322 6.0 11.0 0.00 0.63 0.00 71 1007.2
20260505123551 51 331 7.0 11.0 0.00 0.63 0.00 71 1006.9
20260505123054 51 340 6.0 11.0 0.00 0.63 0.00 72 1006.9
20260505122551 51 329 6.0 10.0 0.00 0.63 0.00 73 1006.5
20260505122049 51 322 6.0 10.0 0.00 0.63 0.00 74 1006.2
20260505121549 51 311 7.0 12.0 0.00 0.63 0.00 74 1006.4
20260505121049 51 320 7.0 12.0 0.00 0.63 0.00 73 1006.3
20260505120549 51 300 7.0 14.0 0.00 0.63 0.00 73 1006.4
20260505120053 51 311 7.0 14.0 0.00 0.63 0.00 72 1006.4
20260505115547 51 307 9.0 13.0 0.00 0.63 0.00 73 1006.4
20260505115048 51 311 6.0 11.0 0.00 0.63 0.00 75 1006.3
20260505114553 51 307 7.0 10.0 0.00 0.63 0.00 75 1006.0
20260505114044 51 322 6.0 10.0 0.00 0.63 0.00 75 1005.7
20260505113546 51 312 6.0 10.0 0.00 0.63 0.00 74 1005.6
20260505113043 51 303 5.0 9.0 0.00 0.63 0.00 72 1005.2
20260505112541 52 303 4.0 9.0 0.00 0.63 0.00 72 1005.2
20260505112042 52 296 5.0 10.0 0.00 0.63 0.00 71 1005.3
20260505111541 52 302 5.0 10.0 0.00 0.63 0.00 72 1005.1
20260505111039 52 313 5.0 10.0 0.00 0.63 0.00 73 1004.9
20260505110539 52 275 6.0 9.0 0.00 0.63 0.00 69 1004.9
20260505102030 53 275 4.0 8.0 0.00 0.63 0.00 68 1004.9
20260505101541 53 275 4.0 8.0 0.00 0.63 0.00 69 1005.0
20260505101029 54 284 3.0 8.0 0.00 0.63 0.00 66 1004.9
20260505100528 53 284 2.0 5.0 0.00 0.63 0.00 65 1004.7
20260505100028 53 313 3.0 5.0 0.00 0.63 0.00 66 1004.9
20260505095527 53 285 2.0 6.0 0.00 0.63 0.00 69 1004.8
20260505095029 54 267 3.0 7.0 0.00 0.63 0.00 68 1004.8
20260505094535 54 270 4.0 7.0 0.00 0.63 0.00 69 1004.9
20260505094025 54 263 3.0 6.0 0.00 0.63 0.00 68 1004.9
20260505093524 54 269 2.0 6.0 0.00 0.63 0.00 69 1004.8
20260505093024 55 244 1.0 7.0 0.00 0.63 0.00 68 1004.8
20260505092526 55 256 3.0 9.0 0.00 0.63 0.00 66 1004.8
20260505092023 55 270 4.0 9.0 0.00 0.63 0.00 67 1004.7
20260505091522 55 267 4.0 8.0 0.00 0.63 0.00 68 1004.4
20260505091020 55 276 3.0 7.0 0.00 0.63 0.00 67 1004.3
20260505090520 55 259 3.0 8.0 0.00 0.63 0.00 63 1004.4
20260505090022 56 277 4.0 8.0 0.00 0.63 0.00 61 1004.4
20260505085522 55 275 4.0 8.0 0.00 0.63 0.00 61 1004.2
20260505085021 56 297 4.0 7.0 0.00 0.63 0.00 64 1004.2
20260505084517 56 268 4.0 7.0 0.00 0.63 0.00 61 1004.0
20260505084016 56 261 4.0 6.0 0.00 0.63 0.00 60 1003.8
20260505083515 56 273 3.0 6.0 0.00 0.63 0.00 60 1003.5
20260505083020 56 274 2.0 7.0 0.00 0.63 0.00 62 1003.6
20260505082518 56 260 4.0 7.0 0.00 0.63 0.00 61 1003.5
20260505082017 55 252 2.0 5.0 0.00 0.63 0.00 67 1003.5
20260505081512 56 259 2.0 6.0 0.00 0.63 0.00 63 1003.3
20260505081016 57 256 3.0 6.0 0.00 0.63 0.00 56 1003.1
20260505080510 57 262 3.0 6.0 0.00 0.63 0.00 57 1003.0
20260505080010 57 294 3.0 6.0 0.00 0.63 0.00 59 1003.0
20260505075511 57 287 3.0 6.0 0.00 0.63 0.00 59 1002.9
20260505075016 56 277 3.0 5.0 0.00 0.63 0.00 64 1002.9
20260505074507 56 271 3.0 5.0 0.00 0.63 0.00 64 1002.9
20260505074007 55 261 2.0 4.0 0.00 0.63 0.00 69 1003.0
20260505073508 55 261 1.0 3.0 0.00 0.63 0.00 68 1002.8
20260505073005 55 243 0.0 3.0 0.00 0.63 0.00 72 1002.5
20260505072503 55 250 2.0 4.0 0.00 0.63 0.00 71 1002.5
20260505072002 56 271 2.0 4.0 0.00 0.63 0.00 68 1002.4
20260505071605 56 298 1.0 2.0 0.00 0.63 0.00 67 1002.2
20260505071101 56 298 1.0 3.0 0.00 0.63 0.00 66 1001.9
20260505070600 56 298 1.0 3.0 0.00 0.63 0.00 70 1001.8
20260505070104 56 298 1.0 2.0 0.00 0.63 0.00 70 1002.0
20260505065601 56 298 1.0 2.0 0.00 0.63 0.00 69 1001.9
20260505065056 56 298 0.0 2.0 0.00 0.63 0.00 68 1001.8
20260505064556 56 298 0.0 5.0 0.00 0.63 0.00 67 1001.8
20260505064055 56 303 2.0 5.0 0.00 0.63 0.00 67 1001.7
20260505063554 56 333 1.0 3.0 0.00 0.63 0.00 72 1001.6
20260505063053 57 333 1.0 5.0 0.00 0.63 0.00 72 1001.5
20260505062551 57 333 2.0 6.0 0.00 0.63 0.00 72 1001.2
20260505062056 58 322 4.0 7.0 0.00 0.63 0.00 72 1001.1
20260505061549 58 323 4.0 8.0 0.00 0.63 0.00 72 1001.2
20260505061047 58 344 4.0 10.0 0.00 0.63 0.00 73 1000.8
20260505060547 58 325 6.0 10.0 0.00 0.63 0.00 74 1000.8
20260505060050 58 322 5.0 8.0 0.00 0.63 0.00 77 1000.7
20260505055548 58 331 4.0 5.0 0.00 0.63 0.00 80 1000.9
20260505055044 58 316 3.0 5.0 0.00 0.63 0.00 81 1000.9
20260505054546 58 313 2.0 4.0 0.00 0.63 0.00 82 1000.8
20260505054042 59 324 2.0 3.0 0.00 0.63 0.00 82 1000.8
20260505053540 59 302 1.0 5.0 0.00 0.63 0.00 80 1000.7
20260505053041 60 302 2.0 6.0 0.00 0.63 0.00 79 1000.6